Location: Fauquembergues
(50.6005°N, 2.0987°E)
Time: 03:56:24
(UTC+00:00)

Landsat 4 - Pass Details

Date: 14 July 2020
Orbit: 506 x 522 km, 98.2° (Epoch: 06 August)

Event Time Altitude Azimuth Distance (km) Brightness Sun altitude
Rises 00:03:38 0° 15° (NNE) 2,660 8.8 -17.8°
Reaches altitude 10° 00:05:45 10° 18° (NNE) 1,768 7.6 -17.7°
Maximum altitude 00:09:34 74° 104° (ESE) 550 3.7 -17.7°
Enters shadow 00:10:42 43° 177° (S) 741 4.0 -17.7°
